Year,Month,Day,Hour,Minute,Value (Times are PST for temperature in C)
2012,06,28,00,00,12.30
2012,06,28,00,01,12.20
2012,06,28,00,02,12.20
2012,06,28,00,03,12.20
2012,06,28,00,04,12.20
2012,06,28,00,05,12.20
2012,06,28,00,06,12.20
2012,06,28,00,07,12.10
2012,06,28,00,08,12.10
2012,06,28,00,09,12.10
2012,06,28,00,10,12.10
2012,06,28,00,11,12.10
2012,06,28,00,12,12.10
2012,06,28,00,13,12.00
2012,06,28,00,14,12.00
2012,06,28,00,15,12.00
2012,06,28,00,16,11.90
2012,06,28,00,17,11.90
2012,06,28,00,18,11.90
2012,06,28,00,19,11.90
2012,06,28,00,20,11.90
2012,06,28,00,21,11.90
2012,06,28,00,22,11.90
2012,06,28,00,23,11.90
2012,06,28,00,24,11.90
2012,06,28,00,25,11.90
2012,06,28,00,26,11.90
2012,06,28,00,27,11.90
2012,06,28,00,28,11.90
2012,06,28,00,29,11.90
2012,06,28,00,30,11.90
2012,06,28,00,31,11.90
2012,06,28,00,32,11.90
2012,06,28,00,33,11.90
2012,06,28,00,34,11.90
2012,06,28,00,35,11.90
2012,06,28,00,36,11.90
2012,06,28,00,37,11.90
2012,06,28,00,38,11.90
2012,06,28,00,39,11.90
2012,06,28,00,40,11.80
2012,06,28,00,41,11.80
2012,06,28,00,42,11.80
2012,06,28,00,43,11.80
2012,06,28,00,44,11.80
2012,06,28,00,45,11.80
2012,06,28,00,46,11.80
2012,06,28,00,47,11.70
2012,06,28,00,48,11.70
2012,06,28,00,49,11.70
2012,06,28,00,50,11.70
2012,06,28,00,51,11.70
2012,06,28,00,52,11.70
2012,06,28,00,53,11.70
2012,06,28,00,54,11.70
2012,06,28,00,55,11.70
2012,06,28,00,56,11.70
2012,06,28,00,57,11.70
2012,06,28,00,58,11.70
2012,06,28,00,59,11.80
2012,06,28,01,00,11.80
2012,06,28,01,01,11.80
2012,06,28,01,02,11.80
2012,06,28,01,03,11.80
2012,06,28,01,04,11.80
2012,06,28,01,05,11.80
2012,06,28,01,06,11.80
2012,06,28,01,07,11.90
2012,06,28,01,08,11.90
2012,06,28,01,09,11.90
2012,06,28,01,10,11.90
2012,06,28,01,11,11.90
2012,06,28,01,12,11.90
2012,06,28,01,13,12.00
2012,06,28,01,14,12.00
2012,06,28,01,15,12.00
2012,06,28,01,16,12.00
2012,06,28,01,17,12.00
2012,06,28,01,18,12.10
2012,06,28,01,19,12.10
2012,06,28,01,20,12.10
2012,06,28,01,21,12.10
2012,06,28,01,22,12.10
2012,06,28,01,23,12.10
2012,06,28,01,24,12.10
2012,06,28,01,25,12.10
2012,06,28,01,26,12.10
2012,06,28,01,27,12.10
2012,06,28,01,28,12.00
2012,06,28,01,29,12.00
2012,06,28,01,30,11.90
2012,06,28,01,31,11.90
2012,06,28,01,32,11.90
2012,06,28,01,33,11.80
2012,06,28,01,34,11.80
2012,06,28,01,35,11.80
2012,06,28,01,36,11.80
2012,06,28,01,37,11.70
2012,06,28,01,38,11.70
2012,06,28,01,39,11.70
2012,06,28,01,40,11.70
2012,06,28,01,41,11.60
2012,06,28,01,42,11.60
2012,06,28,01,43,11.60
2012,06,28,01,44,11.60
2012,06,28,01,45,11.50
2012,06,28,01,46,11.50
2012,06,28,01,47,11.50
2012,06,28,01,48,11.50
2012,06,28,01,49,11.50
2012,06,28,01,50,11.50
2012,06,28,01,51,11.50
2012,06,28,01,52,11.50
2012,06,28,01,53,11.50
2012,06,28,01,54,11.40
2012,06,28,01,55,11.40
2012,06,28,01,56,11.40
2012,06,28,01,57,11.40
2012,06,28,01,58,11.40
2012,06,28,01,59,11.30
2012,06,28,02,00,11.30
2012,06,28,02,01,11.30
2012,06,28,02,02,11.30
2012,06,28,02,03,11.20
2012,06,28,02,04,11.20
2012,06,28,02,05,11.20
2012,06,28,02,06,11.10
2012,06,28,02,07,11.10
2012,06,28,02,08,11.10
2012,06,28,02,09,11.10
2012,06,28,02,10,11.10
2012,06,28,02,11,11.00
2012,06,28,02,12,11.00
2012,06,28,02,13,11.00
2012,06,28,02,14,11.00
2012,06,28,02,15,10.90
2012,06,28,02,16,10.90
2012,06,28,02,17,10.90
2012,06,28,02,18,10.90
2012,06,28,02,19,10.80
2012,06,28,02,20,10.80
2012,06,28,02,21,10.80
2012,06,28,02,22,10.80
2012,06,28,02,23,10.80
2012,06,28,02,24,10.80
2012,06,28,02,25,10.70
2012,06,28,02,26,10.70
2012,06,28,02,27,10.70
2012,06,28,02,28,10.70
2012,06,28,02,29,10.70
2012,06,28,02,30,10.70
2012,06,28,02,31,10.70
2012,06,28,02,32,10.80
2012,06,28,02,33,10.80
2012,06,28,02,34,10.80
2012,06,28,02,35,10.80
2012,06,28,02,36,10.90
2012,06,28,02,37,10.90
2012,06,28,02,38,11.00
2012,06,28,02,39,11.00
2012,06,28,02,40,11.00
2012,06,28,02,41,11.00
2012,06,28,02,42,11.00
2012,06,28,02,43,11.10
2012,06,28,02,44,11.10
2012,06,28,02,45,11.10
2012,06,28,02,46,11.10
2012,06,28,02,47,11.10
2012,06,28,02,48,11.10
2012,06,28,02,49,11.10
2012,06,28,02,50,11.10
2012,06,28,02,51,11.10
2012,06,28,02,52,11.00
2012,06,28,02,53,11.00
2012,06,28,02,54,10.90
2012,06,28,02,55,10.90
2012,06,28,02,56,10.80
2012,06,28,02,57,10.80
2012,06,28,02,58,10.80
2012,06,28,02,59,10.70
2012,06,28,03,00,10.70
2012,06,28,03,01,10.70
2012,06,28,03,02,10.70
2012,06,28,03,03,10.70
2012,06,28,03,04,10.60
2012,06,28,03,05,10.60
2012,06,28,03,06,10.60
2012,06,28,03,07,10.60
2012,06,28,03,08,10.60
2012,06,28,03,09,10.60
2012,06,28,03,10,10.60
2012,06,28,03,11,10.60
2012,06,28,03,12,10.50
2012,06,28,03,13,10.50
2012,06,28,03,14,10.50
2012,06,28,03,15,10.50
2012,06,28,03,16,10.40
2012,06,28,03,17,10.40
2012,06,28,03,18,10.40
2012,06,28,03,19,10.40
2012,06,28,03,20,10.40
2012,06,28,03,21,10.30
2012,06,28,03,22,10.30
2012,06,28,03,23,10.30
2012,06,28,03,24,10.30
2012,06,28,03,25,10.30
2012,06,28,03,26,10.30
2012,06,28,03,27,10.30
2012,06,28,03,28,10.30
2012,06,28,03,29,10.30
2012,06,28,03,30,10.30
2012,06,28,03,31,10.30
2012,06,28,03,32,10.30
2012,06,28,03,33,10.30
2012,06,28,03,34,10.20
2012,06,28,03,35,10.20
2012,06,28,03,36,10.20
2012,06,28,03,37,10.20
2012,06,28,03,38,10.20
2012,06,28,03,39,10.20
2012,06,28,03,40,10.20
2012,06,28,03,41,10.20
2012,06,28,03,42,10.20
2012,06,28,03,43,10.20
2012,06,28,03,44,10.20
2012,06,28,03,45,10.20
2012,06,28,03,46,10.20
2012,06,28,03,47,10.20
2012,06,28,03,48,10.20
2012,06,28,03,49,10.20
2012,06,28,03,50,10.10
2012,06,28,03,51,10.10
2012,06,28,03,52,10.10
2012,06,28,03,53,10.10
2012,06,28,03,54,10.10
2012,06,28,03,55,10.10
2012,06,28,03,56,10.10
2012,06,28,03,57,10.10
2012,06,28,03,58,10.10
2012,06,28,03,59,10.10
2012,06,28,04,00,10.10
2012,06,28,04,01,10.10
2012,06,28,04,02,10.10
2012,06,28,04,03,10.10
2012,06,28,04,04,10.10
2012,06,28,04,05,10.10
2012,06,28,04,06,10.10
2012,06,28,04,07,10.10
2012,06,28,04,08,10.00
2012,06,28,04,09,10.00
2012,06,28,04,10,10.00
2012,06,28,04,11,10.00
2012,06,28,04,12,9.90
2012,06,28,04,13,9.90
2012,06,28,04,14,9.90
2012,06,28,04,15,9.90
2012,06,28,04,16,9.90
2012,06,28,04,17,9.90
2012,06,28,04,18,9.90
2012,06,28,04,19,9.90
2012,06,28,04,20,10.00
2012,06,28,04,21,10.00
2012,06,28,04,22,10.00
2012,06,28,04,23,10.00
2012,06,28,04,24,10.10
2012,06,28,04,25,10.10
2012,06,28,04,26,10.10
2012,06,28,04,27,10.10
2012,06,28,04,28,10.20
2012,06,28,04,29,10.20
2012,06,28,04,30,10.20
2012,06,28,04,31,10.20
2012,06,28,04,32,10.20
2012,06,28,04,33,10.20
2012,06,28,04,34,10.20
2012,06,28,04,35,10.20
2012,06,28,04,36,10.30
2012,06,28,04,37,10.30
2012,06,28,04,38,10.30
2012,06,28,04,39,10.20
2012,06,28,04,40,10.20
2012,06,28,04,41,10.20
2012,06,28,04,42,10.20
2012,06,28,04,43,10.20
2012,06,28,04,44,10.20
2012,06,28,04,45,10.20
2012,06,28,04,46,10.20
2012,06,28,04,47,10.20
2012,06,28,04,48,10.20
2012,06,28,04,49,10.20
2012,06,28,04,50,10.20
2012,06,28,04,51,10.20
2012,06,28,04,52,10.20
2012,06,28,04,53,10.20
2012,06,28,04,54,10.20
2012,06,28,04,55,10.20
2012,06,28,04,56,10.10
2012,06,28,04,57,10.10
2012,06,28,04,58,10.10
2012,06,28,04,59,10.10
2012,06,28,05,00,10.10
2012,06,28,05,01,10.10
2012,06,28,05,02,10.10
2012,06,28,05,03,10.10
2012,06,28,05,04,10.00
2012,06,28,05,05,10.00
2012,06,28,05,06,10.00
2012,06,28,05,07,10.00
2012,06,28,05,08,10.00
2012,06,28,05,09,10.00
2012,06,28,05,10,10.00
2012,06,28,05,11,10.00
2012,06,28,05,12,10.00
2012,06,28,05,13,10.00
2012,06,28,05,14,10.00
2012,06,28,05,15,10.00
2012,06,28,05,16,10.00
2012,06,28,05,17,10.00
2012,06,28,05,18,10.00
2012,06,28,05,19,10.00
2012,06,28,05,20,10.00
2012,06,28,05,21,10.00
2012,06,28,05,22,9.90
2012,06,28,05,23,9.90
2012,06,28,05,24,9.90
2012,06,28,05,25,9.90
2012,06,28,05,26,9.90
2012,06,28,05,27,9.90
2012,06,28,05,28,9.90
2012,06,28,05,29,10.00
2012,06,28,05,30,10.00
2012,06,28,05,31,10.00
2012,06,28,05,32,10.00
2012,06,28,05,33,10.00
2012,06,28,05,34,10.00
2012,06,28,05,35,10.00
2012,06,28,05,36,10.00
2012,06,28,05,37,9.90
2012,06,28,05,38,9.90
2012,06,28,05,39,9.90
2012,06,28,05,40,9.90
2012,06,28,05,41,9.90
2012,06,28,05,42,9.90
2012,06,28,05,43,9.90
2012,06,28,05,44,9.90
2012,06,28,05,45,9.80
2012,06,28,05,46,9.80
2012,06,28,05,47,9.80
2012,06,28,05,48,9.80
2012,06,28,05,49,9.80
2012,06,28,05,50,9.80
2012,06,28,05,51,9.80
2012,06,28,05,52,9.80
2012,06,28,05,53,9.90
2012,06,28,05,54,9.90
2012,06,28,05,55,9.90
2012,06,28,05,56,9.90
2012,06,28,05,57,10.00
2012,06,28,05,58,10.00
2012,06,28,05,59,10.00
2012,06,28,06,00,10.10
2012,06,28,06,01,10.10
2012,06,28,06,02,10.10
2012,06,28,06,03,10.10
2012,06,28,06,04,10.10
2012,06,28,06,05,10.10
2012,06,28,06,06,10.10
2012,06,28,06,07,10.10
2012,06,28,06,08,10.10
2012,06,28,06,09,10.10
2012,06,28,06,10,10.10
2012,06,28,06,11,10.10
2012,06,28,06,12,10.10
2012,06,28,06,13,10.10
2012,06,28,06,14,10.10
2012,06,28,06,15,10.10
2012,06,28,06,16,10.10
2012,06,28,06,17,10.10
2012,06,28,06,18,10.10
2012,06,28,06,19,10.10
2012,06,28,06,20,10.10
2012,06,28,06,21,10.10
2012,06,28,06,22,10.10
2012,06,28,06,23,10.10
2012,06,28,06,24,10.10
2012,06,28,06,25,10.10
2012,06,28,06,26,10.10
2012,06,28,06,27,10.10
2012,06,28,06,28,10.10
2012,06,28,06,29,10.10
2012,06,28,06,30,10.10
2012,06,28,06,31,10.10
2012,06,28,06,32,10.10
2012,06,28,06,33,10.20
2012,06,28,06,34,10.20
2012,06,28,06,35,10.20
2012,06,28,06,36,10.20
2012,06,28,06,37,10.20
2012,06,28,06,38,10.20
2012,06,28,06,39,10.20
2012,06,28,06,40,10.30
2012,06,28,06,41,10.30
2012,06,28,06,42,10.30
2012,06,28,06,43,10.30
2012,06,28,06,44,10.40
2012,06,28,06,45,10.40
2012,06,28,06,46,10.40
2012,06,28,06,47,10.40
2012,06,28,06,48,10.40
2012,06,28,06,49,10.50
2012,06,28,06,50,10.50
2012,06,28,06,51,10.50
2012,06,28,06,52,10.60
2012,06,28,06,53,10.60
2012,06,28,06,54,10.60
2012,06,28,06,55,10.70
2012,06,28,06,56,10.70
2012,06,28,06,57,10.80
2012,06,28,06,58,10.80
2012,06,28,06,59,10.80
2012,06,28,07,00,10.90
2012,06,28,07,01,11.00
2012,06,28,07,02,11.00
2012,06,28,07,03,11.10
2012,06,28,07,04,11.10
2012,06,28,07,05,11.20
2012,06,28,07,06,11.20
2012,06,28,07,07,11.30
2012,06,28,07,08,11.40
2012,06,28,07,09,11.40
2012,06,28,07,10,11.50
2012,06,28,07,11,11.60
2012,06,28,07,12,11.60
2012,06,28,07,13,11.70
2012,06,28,07,14,11.80
2012,06,28,07,15,11.90
2012,06,28,07,16,11.90
2012,06,28,07,17,12.00
2012,06,28,07,18,12.10
2012,06,28,07,19,12.20
2012,06,28,07,20,12.20
2012,06,28,07,21,12.30
2012,06,28,07,22,12.30
2012,06,28,07,23,12.40
2012,06,28,07,24,12.40
2012,06,28,07,25,12.50
2012,06,28,07,26,12.50
2012,06,28,07,27,12.60
2012,06,28,07,28,12.70
2012,06,28,07,29,12.70
2012,06,28,07,30,12.80
2012,06,28,07,31,12.80
2012,06,28,07,32,12.90
2012,06,28,07,33,12.90
2012,06,28,07,34,13.00
2012,06,28,07,35,13.00
2012,06,28,07,36,13.10
2012,06,28,07,37,13.20
2012,06,28,07,38,13.20
2012,06,28,07,39,13.20
2012,06,28,07,40,13.30
2012,06,28,07,41,13.30
2012,06,28,07,42,13.40
2012,06,28,07,43,13.40
2012,06,28,07,44,13.50
2012,06,28,07,45,13.60
2012,06,28,07,46,13.70
2012,06,28,07,47,13.70
2012,06,28,07,48,13.80
2012,06,28,07,49,13.80
2012,06,28,07,50,13.90
2012,06,28,07,51,14.00
2012,06,28,07,52,14.00
2012,06,28,07,53,14.10
2012,06,28,07,54,14.20
2012,06,28,07,55,14.20
2012,06,28,07,56,14.30
2012,06,28,07,57,14.40
2012,06,28,07,58,14.40
2012,06,28,07,59,14.50
2012,06,28,08,00,14.50
2012,06,28,08,01,14.60
2012,06,28,08,02,14.60
2012,06,28,08,03,14.70
2012,06,28,08,04,14.70
2012,06,28,08,05,14.80
2012,06,28,08,06,14.80
2012,06,28,08,07,14.80
2012,06,28,08,08,14.80
2012,06,28,08,09,14.80
2012,06,28,08,10,14.90
2012,06,28,08,11,15.00
2012,06,28,08,12,15.00
2012,06,28,08,13,15.00
2012,06,28,08,14,15.00
2012,06,28,08,15,15.00
2012,06,28,08,16,15.10
2012,06,28,08,17,15.10
2012,06,28,08,18,15.20
2012,06,28,08,19,15.20
2012,06,28,08,20,15.30
2012,06,28,08,21,15.30
2012,06,28,08,22,15.30
2012,06,28,08,23,15.30
2012,06,28,08,24,15.40
2012,06,28,08,25,15.40
2012,06,28,08,26,15.50
2012,06,28,08,27,15.60
2012,06,28,08,28,15.60
2012,06,28,08,29,15.60
2012,06,28,08,30,15.60
2012,06,28,08,31,15.60
2012,06,28,08,32,15.60
2012,06,28,08,33,15.60
2012,06,28,08,34,15.60
2012,06,28,08,35,15.60
2012,06,28,08,36,15.70
2012,06,28,08,37,15.70
2012,06,28,08,38,15.70
2012,06,28,08,39,15.80
2012,06,28,08,40,15.80
2012,06,28,08,41,15.80
2012,06,28,08,42,15.80
2012,06,28,08,43,15.90
2012,06,28,08,44,15.90
2012,06,28,08,45,16.00
2012,06,28,08,46,16.00
2012,06,28,08,47,16.10
2012,06,28,08,48,16.10
2012,06,28,08,49,16.20
2012,06,28,08,50,16.20
2012,06,28,08,51,16.30
2012,06,28,08,52,16.30
2012,06,28,08,53,16.40
2012,06,28,08,54,16.40
2012,06,28,08,55,16.50
2012,06,28,08,56,16.60
2012,06,28,08,57,16.60
2012,06,28,08,58,16.70
2012,06,28,08,59,16.70
2012,06,28,09,00,16.70
2012,06,28,09,01,16.70
2012,06,28,09,02,16.70
2012,06,28,09,03,16.80
2012,06,28,09,04,16.80
2012,06,28,09,05,16.80
2012,06,28,09,06,16.80
2012,06,28,09,07,16.80
2012,06,28,09,08,16.80
2012,06,28,09,09,16.80
2012,06,28,09,10,16.80
2012,06,28,09,11,16.80
2012,06,28,09,12,16.80
2012,06,28,09,13,16.80
2012,06,28,09,14,16.90
2012,06,28,09,15,17.00
2012,06,28,09,16,17.00
2012,06,28,09,17,17.00
2012,06,28,09,18,17.10
2012,06,28,09,19,17.20
2012,06,28,09,20,17.20
2012,06,28,09,21,17.30
2012,06,28,09,22,17.40
2012,06,28,09,23,17.50
2012,06,28,09,24,17.60
2012,06,28,09,25,17.70
2012,06,28,09,26,17.70
2012,06,28,09,27,17.80
2012,06,28,09,28,17.80
2012,06,28,09,29,17.80
2012,06,28,09,30,17.70
2012,06,28,09,31,17.60
2012,06,28,09,32,17.50
2012,06,28,09,33,17.40
2012,06,28,09,34,17.30
2012,06,28,09,35,17.20
2012,06,28,09,36,17.10
2012,06,28,09,37,17.00
2012,06,28,09,38,16.90
2012,06,28,09,39,16.80
2012,06,28,09,40,16.80
2012,06,28,09,41,16.80
2012,06,28,09,42,16.80
2012,06,28,09,43,16.80
2012,06,28,09,44,16.80
2012,06,28,09,45,16.90
2012,06,28,09,46,16.90
2012,06,28,09,47,16.90
2012,06,28,09,48,16.90
2012,06,28,09,49,16.90
2012,06,28,09,50,16.90
2012,06,28,09,51,16.90
2012,06,28,09,52,16.90
2012,06,28,09,53,17.00
2012,06,28,09,54,17.00
2012,06,28,09,55,17.10
2012,06,28,09,56,17.20
2012,06,28,09,57,17.20
2012,06,28,09,58,17.30
2012,06,28,09,59,17.30
2012,06,28,10,00,17.40
2012,06,28,10,01,17.40
2012,06,28,10,02,17.50
2012,06,28,10,03,17.60
2012,06,28,10,04,17.70
2012,06,28,10,05,17.80
2012,06,28,10,06,17.80
2012,06,28,10,07,17.80
2012,06,28,10,08,17.80
2012,06,28,10,09,17.70
2012,06,28,10,10,17.60
2012,06,28,10,11,17.50
2012,06,28,10,12,17.40
2012,06,28,10,13,17.40
2012,06,28,10,14,17.20
2012,06,28,10,15,17.10
2012,06,28,10,16,17.00
2012,06,28,10,17,16.90
2012,06,28,10,18,16.90
2012,06,28,10,19,16.90
2012,06,28,10,20,16.90
2012,06,28,10,21,16.90
2012,06,28,10,22,17.00
2012,06,28,10,23,17.00
2012,06,28,10,24,17.00
2012,06,28,10,25,17.10
2012,06,28,10,26,17.10
2012,06,28,10,27,17.10
2012,06,28,10,28,17.10
2012,06,28,10,29,17.00
2012,06,28,10,30,16.90
2012,06,28,10,31,16.90
2012,06,28,10,32,16.80
2012,06,28,10,33,16.70
2012,06,28,10,34,16.70
2012,06,28,10,35,16.80
2012,06,28,10,36,16.80
2012,06,28,10,37,16.90
2012,06,28,10,38,16.80
2012,06,28,10,39,16.80
2012,06,28,10,40,16.70
2012,06,28,10,41,16.60
2012,06,28,10,42,16.60
2012,06,28,10,43,16.50
2012,06,28,10,44,16.50
2012,06,28,10,45,16.60
2012,06,28,10,46,16.60
2012,06,28,10,47,16.60
2012,06,28,10,48,16.60
2012,06,28,10,49,16.60
2012,06,28,10,50,16.60
2012,06,28,10,51,16.70
2012,06,28,10,52,16.70
2012,06,28,10,53,16.80
2012,06,28,10,54,16.70
2012,06,28,10,55,16.70
2012,06,28,10,56,16.70
2012,06,28,10,57,16.70
2012,06,28,10,58,16.70
2012,06,28,10,59,16.70
2012,06,28,11,00,16.60
2012,06,28,11,01,16.60
2012,06,28,11,02,16.70
2012,06,28,11,03,16.70
2012,06,28,11,04,16.70
2012,06,28,11,05,16.70
2012,06,28,11,06,16.70
2012,06,28,11,07,16.70
2012,06,28,11,08,16.80
2012,06,28,11,09,16.90
2012,06,28,11,10,17.00
2012,06,28,11,11,17.10
2012,06,28,11,12,17.00
2012,06,28,11,13,16.90
2012,06,28,11,14,16.80
2012,06,28,11,15,16.80
2012,06,28,11,16,16.80
2012,06,28,11,17,16.80
2012,06,28,11,18,16.80
2012,06,28,11,19,16.70
2012,06,28,11,20,16.70
2012,06,28,11,21,16.60
2012,06,28,11,22,16.60
2012,06,28,11,23,16.60
2012,06,28,11,24,16.60
2012,06,28,11,25,16.60
2012,06,28,11,26,16.60
2012,06,28,11,27,16.60
2012,06,28,11,28,16.60
2012,06,28,11,29,16.60
2012,06,28,11,30,16.60
2012,06,28,11,31,16.50
2012,06,28,11,32,16.40
2012,06,28,11,33,16.40
2012,06,28,11,34,16.40
2012,06,28,11,35,16.30
2012,06,28,11,36,16.30
2012,06,28,11,37,16.30
2012,06,28,11,38,16.30
2012,06,28,11,39,16.30
2012,06,28,11,40,16.30
2012,06,28,11,41,16.20
2012,06,28,11,42,16.20
2012,06,28,11,43,16.20
2012,06,28,11,44,16.10
2012,06,28,11,45,16.10
2012,06,28,11,46,16.10
2012,06,28,11,47,16.10
2012,06,28,11,48,16.00
2012,06,28,11,49,16.00
2012,06,28,11,50,15.90
2012,06,28,11,51,15.90
2012,06,28,11,52,15.90
2012,06,28,11,53,15.80
2012,06,28,11,54,15.70
2012,06,28,11,55,15.70
2012,06,28,11,56,15.70
2012,06,28,11,57,15.60
2012,06,28,11,58,15.60
2012,06,28,11,59,15.50
2012,06,28,12,00,15.50
2012,06,28,12,01,15.40
2012,06,28,12,02,15.40
2012,06,28,12,03,15.40
2012,06,28,12,04,15.40
2012,06,28,12,05,15.40
2012,06,28,12,06,15.40
2012,06,28,12,07,15.40
2012,06,28,12,08,15.40
2012,06,28,12,09,15.40
2012,06,28,12,10,15.40
2012,06,28,12,11,15.40
2012,06,28,12,12,15.40
2012,06,28,12,13,15.30
2012,06,28,12,14,15.30
2012,06,28,12,15,15.30
2012,06,28,12,16,15.30
2012,06,28,12,17,15.20
2012,06,28,12,18,15.20
2012,06,28,12,19,15.20
2012,06,28,12,20,15.30
2012,06,28,12,21,15.30
2012,06,28,12,22,15.40
2012,06,28,12,23,15.40
2012,06,28,12,24,15.40
2012,06,28,12,25,15.40
2012,06,28,12,26,15.30
2012,06,28,12,27,15.30
2012,06,28,12,28,15.30
2012,06,28,12,29,15.30
2012,06,28,12,30,15.30
2012,06,28,12,31,15.40
2012,06,28,12,32,15.40
2012,06,28,12,33,15.40
2012,06,28,12,34,15.50
2012,06,28,12,35,15.50
2012,06,28,12,36,15.60
2012,06,28,12,37,15.60
2012,06,28,12,38,15.60
2012,06,28,12,39,15.70
2012,06,28,12,40,15.70
2012,06,28,12,41,15.70
2012,06,28,12,42,15.70
2012,06,28,12,43,15.80
2012,06,28,12,44,15.80
2012,06,28,12,45,15.80
2012,06,28,12,46,15.80
2012,06,28,12,47,15.70
2012,06,28,12,48,15.70
2012,06,28,12,49,15.70
2012,06,28,12,50,15.60
2012,06,28,12,51,15.60
2012,06,28,12,52,15.60
2012,06,28,12,53,15.50
2012,06,28,12,54,15.50
2012,06,28,12,55,15.40
2012,06,28,12,56,15.40
2012,06,28,12,57,15.40
2012,06,28,12,58,15.30
2012,06,28,12,59,15.30
2012,06,28,13,00,15.30
2012,06,28,13,01,15.20
2012,06,28,13,02,15.20
2012,06,28,13,03,15.20
2012,06,28,13,04,15.30
2012,06,28,13,05,15.30
2012,06,28,13,06,15.30
2012,06,28,13,07,15.30
2012,06,28,13,08,15.40
2012,06,28,13,09,15.40
2012,06,28,13,10,15.40
2012,06,28,13,11,15.40
2012,06,28,13,12,15.40
2012,06,28,13,13,15.40
2012,06,28,13,14,15.40
2012,06,28,13,15,15.40
2012,06,28,13,16,15.40
2012,06,28,13,17,15.40
2012,06,28,13,18,15.40
2012,06,28,13,19,15.40
2012,06,28,13,20,15.40
2012,06,28,13,21,15.40
2012,06,28,13,22,15.50
2012,06,28,13,23,15.50
2012,06,28,13,24,15.50
2012,06,28,13,25,15.60
2012,06,28,13,26,15.60
2012,06,28,13,27,15.60
2012,06,28,13,28,15.60
2012,06,28,13,29,15.60
2012,06,28,13,30,15.60
2012,06,28,13,31,15.60
2012,06,28,13,32,15.60
2012,06,28,13,33,15.70
2012,06,28,13,34,15.70
2012,06,28,13,35,15.70
2012,06,28,13,36,15.70
2012,06,28,13,37,15.80
2012,06,28,13,38,15.80
2012,06,28,13,39,15.80
2012,06,28,13,40,15.80
2012,06,28,13,41,15.80
2012,06,28,13,42,15.80
2012,06,28,13,43,15.80
2012,06,28,13,44,15.80
2012,06,28,13,45,15.90
2012,06,28,13,46,15.90
2012,06,28,13,47,16.00
2012,06,28,13,48,16.00
2012,06,28,13,49,16.10
2012,06,28,13,50,16.10
2012,06,28,13,51,16.10
2012,06,28,13,52,16.00
2012,06,28,13,53,16.00
2012,06,28,13,54,16.00
2012,06,28,13,55,15.90
2012,06,28,13,56,15.90
2012,06,28,13,57,15.90
2012,06,28,13,58,15.90
2012,06,28,13,59,15.90
2012,06,28,14,00,15.80
2012,06,28,14,01,15.80
2012,06,28,14,02,15.90
2012,06,28,14,03,15.90
2012,06,28,14,04,15.90
2012,06,28,14,05,15.90
2012,06,28,14,06,15.90
2012,06,28,14,07,15.90
2012,06,28,14,08,16.00
2012,06,28,14,09,16.10
2012,06,28,14,10,16.10
2012,06,28,14,11,16.10
2012,06,28,14,12,16.20
2012,06,28,14,13,16.20
2012,06,28,14,14,16.30
2012,06,28,14,15,16.30
2012,06,28,14,16,16.30
2012,06,28,14,17,16.30
2012,06,28,14,18,16.30
2012,06,28,14,19,16.30
2012,06,28,14,20,16.30
2012,06,28,14,21,16.30
2012,06,28,14,22,16.30
2012,06,28,14,23,16.30
2012,06,28,14,24,16.30
2012,06,28,14,25,16.30
2012,06,28,14,26,16.30
2012,06,28,14,27,16.30
2012,06,28,14,28,16.30
2012,06,28,14,29,16.30
2012,06,28,14,30,16.30
2012,06,28,14,31,16.40
2012,06,28,14,32,16.40
2012,06,28,14,33,16.40
2012,06,28,14,34,16.40
2012,06,28,14,35,16.40
2012,06,28,14,36,16.40
2012,06,28,14,37,16.40
2012,06,28,14,38,16.40
2012,06,28,14,39,16.40
2012,06,28,14,40,16.50
2012,06,28,14,41,16.50
2012,06,28,14,42,16.50
2012,06,28,14,43,16.50
2012,06,28,14,44,16.50
2012,06,28,14,45,16.50
2012,06,28,14,46,16.60
2012,06,28,14,47,16.60
2012,06,28,14,48,16.60
2012,06,28,14,49,16.60
2012,06,28,14,50,16.60
2012,06,28,14,51,16.60
2012,06,28,14,52,16.60
2012,06,28,14,53,16.60
2012,06,28,14,54,16.60
2012,06,28,14,55,16.60
2012,06,28,14,56,16.70
2012,06,28,14,57,16.70
2012,06,28,14,58,16.70
2012,06,28,14,59,16.70
2012,06,28,15,00,16.70
2012,06,28,15,01,16.70
2012,06,28,15,02,16.70
2012,06,28,15,03,16.70
2012,06,28,15,04,16.70
2012,06,28,15,05,16.70
2012,06,28,15,06,16.70
2012,06,28,15,07,16.70
2012,06,28,15,08,16.70
2012,06,28,15,09,16.70
2012,06,28,15,10,16.70
2012,06,28,15,11,16.70
2012,06,28,15,12,16.70
2012,06,28,15,13,16.70
2012,06,28,15,14,16.80
2012,06,28,15,15,16.80
2012,06,28,15,16,16.80
2012,06,28,15,17,16.80
2012,06,28,15,18,16.80
2012,06,28,15,19,16.80
2012,06,28,15,20,16.80
2012,06,28,15,21,16.90
2012,06,28,15,22,16.90
2012,06,28,15,23,16.90
2012,06,28,15,24,16.90
2012,06,28,15,25,17.00
2012,06,28,15,26,17.00
2012,06,28,15,27,17.00
2012,06,28,15,28,17.10
2012,06,28,15,29,17.10
2012,06,28,15,30,17.20
2012,06,28,15,31,17.10
2012,06,28,15,32,17.10
2012,06,28,15,33,17.10
2012,06,28,15,34,17.00
2012,06,28,15,35,16.90
2012,06,28,15,36,16.80
2012,06,28,15,37,16.80
2012,06,28,15,38,16.80
2012,06,28,15,39,16.70
2012,06,28,15,40,16.70
2012,06,28,15,41,16.70
2012,06,28,15,42,16.60
2012,06,28,15,43,16.60
2012,06,28,15,44,16.60
2012,06,28,15,45,16.60
2012,06,28,15,46,16.70
2012,06,28,15,47,16.70
2012,06,28,15,48,16.70
2012,06,28,15,49,16.70
2012,06,28,15,50,16.70
2012,06,28,15,51,16.70
2012,06,28,15,52,16.70
2012,06,28,15,53,16.70
2012,06,28,15,54,16.70
2012,06,28,15,55,16.80
2012,06,28,15,56,16.80
2012,06,28,15,57,16.80
2012,06,28,15,58,16.80
2012,06,28,15,59,16.80
2012,06,28,16,00,16.80
2012,06,28,16,01,16.80
2012,06,28,16,02,16.80
2012,06,28,16,03,16.80
2012,06,28,16,04,16.80
2012,06,28,16,05,16.80
2012,06,28,16,06,16.80
2012,06,28,16,07,16.70
2012,06,28,16,08,16.70
2012,06,28,16,09,16.70
2012,06,28,16,10,16.70
2012,06,28,16,11,16.70
2012,06,28,16,12,16.70
2012,06,28,16,13,16.70
2012,06,28,16,14,16.70
2012,06,28,16,15,16.70
2012,06,28,16,16,16.70
2012,06,28,16,17,16.70
2012,06,28,16,18,16.70
2012,06,28,16,19,16.70
2012,06,28,16,20,16.70
2012,06,28,16,21,16.60
2012,06,28,16,22,16.50
2012,06,28,16,23,16.50
2012,06,28,16,24,16.50
2012,06,28,16,25,16.50
2012,06,28,16,26,16.60
2012,06,28,16,27,16.50
2012,06,28,16,28,16.50
2012,06,28,16,29,16.50
2012,06,28,16,30,16.50
2012,06,28,16,31,16.40
2012,06,28,16,32,16.40
2012,06,28,16,33,16.40
2012,06,28,16,34,16.50
2012,06,28,16,35,16.50
2012,06,28,16,36,16.50
2012,06,28,16,37,16.50
2012,06,28,16,38,16.50
2012,06,28,16,39,16.50
2012,06,28,16,40,16.40
2012,06,28,16,41,16.40
2012,06,28,16,42,16.40
2012,06,28,16,43,16.40
2012,06,28,16,44,16.40
2012,06,28,16,45,16.40
2012,06,28,16,46,16.30
2012,06,28,16,47,16.30
2012,06,28,16,48,16.30
2012,06,28,16,49,16.30
2012,06,28,16,50,16.30
2012,06,28,16,51,16.30
2012,06,28,16,52,16.30
2012,06,28,16,53,16.30
2012,06,28,16,54,16.30
2012,06,28,16,55,16.40
2012,06,28,16,56,16.40
2012,06,28,16,57,16.40
2012,06,28,16,58,16.40
2012,06,28,16,59,16.40
2012,06,28,17,00,16.40
2012,06,28,17,01,16.40
2012,06,28,17,02,16.50
2012,06,28,17,03,16.50
2012,06,28,17,04,16.50
2012,06,28,17,05,16.50
2012,06,28,17,06,16.50
2012,06,28,17,07,16.40
2012,06,28,17,08,16.40
2012,06,28,17,09,16.40
2012,06,28,17,10,16.30
2012,06,28,17,11,16.30
2012,06,28,17,12,16.20
2012,06,28,17,13,16.10
2012,06,28,17,14,16.00
2012,06,28,17,15,15.80
2012,06,28,17,16,15.70
2012,06,28,17,17,15.70
2012,06,28,17,18,15.60
2012,06,28,17,19,15.50
2012,06,28,17,20,15.50